[Iaude] MPEC B142: 2024 AD3 [a=1.48,e=0.38,i=19.8,H=20.91]
    mpec at marsden.cfa.harvard.edu 
    mpec at marsden.cfa.harvard.edu
       
    Sat Jan 27 09:08:54 EST 2024
    
    
  
M.P.E.C. 2024-B142                             Issued 2024 January 27, 14:07 UT
     The Minor Planet Electronic Circulars contain information on unusual
         minor planets, routine data on comets and natural satellites,
         and occasional editorial announcements.  They are published
    on behalf of Division F of the International Astronomical Union by the
          Minor Planet Center, Smithsonian Astrophysical Observatory,
                          Cambridge, MA 02138, U.S.A.
			  
             Prepared using the Tamkin Foundation Computer Network
                              MPC at CFA.HARVARD.EDU
            URL https://www.minorplanetcenter.net/    ISSN 1523-6714
                                    2024 AD3                                    
                           Revision to MPEC 2024-A128                           
Additional Observations:
     K24A03D  C2014 06 03.54609621 35 02.736-04 52 01.69         23.05GVEB142F51
     K24A03D  C2014 06 03.55872521 35 04.169-04 52 02.06         22.26GVEB142F51
     K24A03D  C2014 06 03.58380721 35 06.899-04 52 02.73         22.08GVEB142F51
     K24A03D  C2014 06 24.52401222 17 44.024-06 23 38.43         22.77GVEB142F51
     K24A03D  C2014 07 08.49031322 52 43.743-09 55 47.40         21.70GVEB142F51
     K24A03D  C2014 07 08.50236522 52 45.718-09 56 03.38         22.10GVEB142F51
     K24A03D  C2014 12 07.59668811 13 45.168-07 58 21.77         21.60GVEB142F51
     K24A03D  C2014 12 07.62420411 13 48.741-07 57 41.50         22.45GVEB142F51
     K24A03D  C2015 01 06.59886412 06 59.638+06 50 25.21         21.53GVEB142F51
     K24A03D  C2015 01 06.60925312 07 00.281+06 50 48.07         21.12GVEB142F51
     K24A03D  C2015 01 06.61254412 07 00.469+06 50 55.32         22.25GVEB142F51
     K24A03D  C2015 01 06.62298512 07 01.114+06 51 17.73         21.65GVEB142F51
     K24A03D  C2015 01 06.63676312 07 01.966+06 51 47.82         21.30GVEB142F51
     K24A03D  C2015 01 06.64007712 07 02.171+06 51 55.48         20.81GVEB142F51
     K24A03D  C2015 02 01.66472012 15 08.731+24 39 40.80         21.21GVEB142F51
     K24A03D  C2015 02 18.66151511 54 58.745+35 24 57.62         21.29GVEB142F51
     K24A03D  C2015 03 10.40711011 18 31.313+41 56 22.74         21.62GVEB142F51
     K24A03D  C2015 03 10.43152511 18 28.580+41 56 35.91         21.93GVEB142F51
     K24A03D  C2015 03 10.44379411 18 27.196+41 56 42.18         22.57GVEB142F51
     K24A03D  C2015 03 24.32494910 58 30.185+42 32 40.01         22.46GVEB142F51
     K24A03D  C2015 03 24.33551510 58 29.456+42 32 38.53         22.61GVEB142F51
     K24A03D  C2015 03 24.34613610 58 28.719+42 32 36.43         22.65GVEB142F51
     K24A03D  C2015 03 24.35679810 58 27.947+42 32 35.14         22.06GVEB142F51
     K24A03D  C2019 05 29.45999215 18 48.932+16 15 43.18         22.83GVEB142F51
     K24A03D  C2019 05 29.47397015 18 47.652+16 15 38.89         22.93GVEB142F51
     K24A03D  C2019 05 29.50194615 18 45.047+16 15 30.46         22.98GVEB142F51
     K24A03D  C2021 06 08.40688417 31 28.966+05 08 14.13         22.65GVEB142F51
     K24A03D  C2021 06 08.41628117 31 27.928+05 08 12.01         23.42GVEB142F51
     K24A03D  C2021 06 08.42549017 31 26.955+05 08 10.31         22.50GVEB142F51
     K24A03D  C2021 06 15.36504217 18 57.419+04 32 46.62         22.76GVEB142F51
     K24A03D  C2021 06 15.37328617 18 56.499+04 32 42.88         22.82GVEB142F51
     K24A03D  C2021 06 15.38140117 18 55.523+04 32 40.34         22.73GVEB142F51
     K24A03D  C2021 07 03.37760516 46 37.628+01 12 06.96         23.05GVEB142F51
     K24A03D  C2021 07 07.39100316 40 24.651+00 09 18.58         23.40GVEB142F51
     K24A03D  C2021 07 07.40218516 40 23.626+00 09 07.17         22.85GVEB142F51
     K24A03D  C2021 07 14.27590016 31 15.825-01 49 12.59         21.99GVEB142F51
     K24A03D  C2021 07 14.28928816 31 14.829-01 49 27.23         22.09GVEB142F51
     K24A03D  C2021 07 14.28993816 31 14.772-01 49 27.98         22.91GVEB142F51
     K24A03D  C2021 07 14.30332116 31 13.791-01 49 42.49         22.66GVEB142F51
Observer details:
F51 Pan-STARRS 1, Haleakala.  Observers J. Herman, T. Lowe, P. Minguez, A.
    Schultz, I. Smith.  Measurers K. Chambers, T. de Boer, J. Fairlamb, H.
    Gao, M. Huber, C.-C. Lin, E. Magnier, Y. Ramanjooloo, R. Wainscoat, R.
    Weryk.  1.8-m Ritchey-Chretien + CCD.
Orbital elements:
2024 AD3                                                 Earth MOID = 0.1225 AU
Epoch 2023 Sept. 13.0 TT = JDT 2460200.5                Veres                   
M 337.28834              (2000.0)            P               Q                  
n   0.54676618     Peri.  283.49572     +0.66964368     -0.68280817             
a   1.4811588      Node   120.50925     +0.74171921     +0.63488802             
e   0.3834711      Incl.   19.82185     -0.03781479     +0.36151100             
P   1.80           H   20.91          G   0.15           U   0                  
Residuals in seconds of arc
140603 F51  0.4-  0.1+    150324 F51  0.0   0.5-    240107 F51  0.1+  0.1-
140603 F51  0.2+  0.1+    150324 F51  0.3-  0.2-    240107 F51  0.1+  0.1-
140603 F51  0.2-  0.1+    190529 F51  0.3+  0.1-    240107 F51  0.1+  0.1-
140624 F51  0.4+  0.4+    190529 F51  0.4+  0.2-    240107 F51  0.3+  0.1-
140708 F51  0.0   0.2+    190529 F51  0.1-  0.1-    240109 I93  0.8-  0.2-
140708 F51  0.2-  0.2+    210608 F51  0.1+  0.0     240109 I93  0.2-  0.0
141207 F51  0.7+  0.1-    210608 F51  0.2-  0.3-    240111 G96  0.1+  0.0
141207 F51  0.3+  0.2-    210608 F51  0.1+  0.1-    240111 G96  0.1-  0.3-
150106 F51  0.0   0.4-    210615 F51  0.0   0.1+    240111 G96  0.1-  0.0
150106 F51  0.1+  0.1-    210615 F51  0.3+  0.3-    240111 G96  0.0   0.1+
150106 F51  0.1-  0.0     210615 F51  0.3-  0.5+    240119 033  0.4-  0.2+
150106 F51  0.0   0.3-    210703 F51  0.0   0.6+    240119 033  0.1-  0.4-
150106 F51  0.2+  0.2-    210707 F51  0.1-  0.3+    240119 033  0.2-  0.3+
150106 F51  0.3+  0.3+    210707 F51  0.0   0.1-    240120 033  0.2+  0.6+
150201 F51  0.0   0.1-    210714 F51  0.2+  0.2+    240120 033  0.3+  0.3+
150218 F51  0.1+  0.0     210714 F51  0.2+  0.0     240120 033  0.2+  0.2+
150310 F51  0.0   0.2-    210714 F51  0.1+  0.0     240120 033  0.3+  0.5+
150310 F51  0.1-  0.1-    210714 F51  0.3+  0.0     240121 F51  0.1+  0.1-
150310 F51  0.2-  0.3-    230617 F51  0.1+  0.1+    240121 F51  0.2+  0.1-
150324 F51  0.2-  0.1-    230617 F51  0.1-  0.0     240121 F51  0.1-  0.2-
150324 F51  0.1-  0.0     231218 F51  0.1+  0.0
Ephemeris:
2024 AD3                 a,e,i = 1.48, 0.38, 20                  q = 0.9132
Date    TT    R. A. (2000) Decl.     Delta      r    Elong.  Phase     V
2023 12 28    11 40 03.3 -01 05 14   0.4281  1.1372    99.8    58.5    21.5
...
2024 01 12    11 55 28.1 +09 50 42   0.4179  1.2235   115.6    46.5    21.2
...
2024 01 20    11 57 51.7 +16 21 43   0.4186  1.2704   124.8    39.5    21.1
...
2024 01 26    11 56 35.3 +21 21 22   0.4241  1.3056   131.7    34.3    21.0
2024 01 27    11 56 06.6 +22 10 58   0.4255  1.3114   132.8    33.4    21.0
2024 01 28    11 55 33.3 +23 00 19   0.4271  1.3173   133.9    32.6    21.0
...
2024 02 03    11 50 37.4 +27 47 37   0.4399  1.3521   139.9    28.0    21.0
...
2024 02 11    11 40 03.6 +33 30 06   0.4668  1.3980   145.9    23.3    21.1
...
2024 02 26    11 12 40.2 +40 51 13   0.5493  1.4813   147.1    21.3    21.5
A. U. Tomatic                (C) Copyright 2024 MPC           M.P.E.C. 2024-B142
    
    
More information about the Iaude
mailing list